Weather Roundup
Issued by NWS

Home | Current Version | Previous Version | Text Only | Print | Product List | Glossary On
Versions: 1 2 3 4 5 6 7 8 9 10 11 12 13 14 15 16 17 18 19 20 21 22 23 24 25 26 27 28 29 30 31 32 33 34 35 36 37 38 39 40 41 42 43 44 45 46 47 48 49 50
000
NZUS93 KARX 260510
HRRWXR

CURRENT HOURLY OBSERVATIONS ACROSS
MUCH OF THE UPPER MISSISSIPPI VALLEY
NATIONAL WEATHER SERVICE LA CROSSE WI
1200 AM CDT SUN APR 26 2015


...SOUTHEAST MINNESOTA...


CITY           SKY/WX    TMP DP  RH WIND       PRES   REMARKS
ROCHESTER      CLEAR     46  22  38 E3        29.94R
ROCHESTER/MAYO FAIR      44  33  63 CALM      29.95R
WINONA         CLEAR     37  32  81 NW3       29.96R
AUSTIN         CLEAR     37  36  93 CALM      29.94R
ALBERT LEA     CLEAR     37  37 100 CALM      29.94R
DODGE CENTER   CLEAR     41  34  75 CALM      29.94R
PRESTON        CLEAR     45  23  42 CALM      29.94R
OWATONNA       CLEAR     37  34  87 CALM      29.95R
FARIBAULT      CLEAR     36  32  87 N5        29.96R WCI  32
$$

...ELSEWHERE IN MINNESOTA...


CITY           SKY/WX    TMP DP  RH WIND       PRES   REMARKS
MINNEAPOLIS    CLEAR     48  25  40 NE9       29.98R
INTNL FALLS    CLEAR     41  25  53 NE6       30.05R
DULUTH         CLEAR     34  15  46 E3        30.04R
RED WING       CLEAR     43  28  56 CALM      29.95R
REDWOOD FALLS  CLEAR     46  36  68 CALM      29.97R
MANKATO        CLEAR     43  34  70 N15       29.96R
WORTHINGTON    PTCLDY    39  34  81 NE3       29.96R
FAIRMONT       CLEAR     39  34  81 CALM      29.94R
$$

...SOUTHWEST WISCONSIN...


CITY           SKY/WX    TMP DP  RH WIND       PRES   REMARKS
LA CROSSE      CLEAR     41  22  46 E3        29.95R
PRAIRIE DU CHI CLEAR     36  30  80 CALM      29.93R
BOSCOBEL       CLEAR     33  28  81 CALM      29.94R
LONE ROCK      CLEAR     37  24  59 CALM      29.93R
PLATTEVILLE    CLEAR     37  29  74 NE5       29.91R WCI  33
FORT MC COY    CLEAR     31  21  67 CALM      29.96R
CAMP DOUGLAS   CLEAR     29  22  75 W1        29.94R
VIROQUA        FAIR      37  18  46 E7        29.93R WCI  31
WIS DELLS      CLEAR     38  11  32 NE8       29.93R WCI  32
$$

...ELSEWHERE IN WISCONSIN...


CITY           SKY/WX    TMP DP  RH WIND       PRES   REMARKS
MILWAUKEE      CLEAR     41  26  55 N13G22    29.89R
MADISON        CLEAR     38  25  59 N6        29.92R WCI  33
GREEN BAY      CLEAR     42  29  59 NE13      29.96R
EAU CLAIRE     CLEAR     43  23  45 NE8       29.97R
BLACK RVR FLS  FAIR      29  23  78 CALM      29.97R
MEDFORD        CLEAR     40  20  43 E3        29.97S
WAUSAU         CLEAR     37  20  50 CALM      29.96R
WIS RAPIDS     CLEAR     38  15  39 NE7       29.97R WCI  33
MARSHFIELD     CLEAR     40  20  44 NE5       29.96R
RICE LAKE      CLEAR     38  22  53 N7        30.01S WCI  32
$$

...NORTHEAST IOWA...


CITY           SKY/WX    TMP DP  RH WIND       PRES   REMARKS
DECORAH        CLEAR     41  30  65 E5        29.93R
MASON CITY     CLEAR     38  35  89 NW3       29.95R
CHARLES CITY   CLEAR     41  37  87 N3        29.94R
OELWEIN        PTCLDY    41  34  75 N5        29.94R
$$

...ELSEWHERE IN IOWA...


CITY           SKY/WX    TMP DP  RH WIND       PRES   REMARKS
DES MOINES     MOCLDY    48  38  68 E9        29.90R
IOWA CITY      CLOUDY    46  37  71 NE8       29.92R
FORT DODGE     PTCLDY    43  37  81 NE7       29.94R
$$

...NORTHERN ILLINOIS...


CITY           SKY/WX    TMP DP  RH WIND       PRES   REMARKS
CHICAGO-OHARE  PTCLDY    41  30  65 N9        29.85R
CHICAGO-MIDWAY MOCLDY    42  32  67 N10       29.85R
MOLINE         CLOUDY    45  35  68 NE9       29.89R
ROCKFORD       CLEAR     42  21  43 NE13      29.90S
PEORIA         CLOUDY    47  40  76 NE10      29.83R
$$

NOTE: "FAIR" INDICATES FEW OR NO CLOUDS BELOW 12,000 FEET WITH NO
SIGNIFICANT WEATHER AND/OR OBSTRUCTIONS TO VISIBILITY. WIND
SPEEDS ARE IN MILES-PER-HOUR.



USA.gov is the U.S. government's official web portal to all federal, state and local government web resources and services.